BEIJING 1

Last updated on Sun Apr 12 2026 00:02:42 GMT+0000 (Coordinated Universal Time)

1 28890U 05043A 26101.49054052 .00000292 00000+0 65638-4 0 9992 2 28890 98.2794 234.3712 0015581 127.3453 232.9171 14.63492737 90892
UTC large
Height (km)
Speed (km/s)
/
Latitude / Longitude
Inclination (degrees)
Orbital Period (minutes)
Azimuth
Elevation
Range (km)
Doppler Factor

Next 0 passes for location: London (51.5072 / 0.1276)

Sorry there are no passes over London.
BEIJING 1